| time (UTC) | temp F | wind direction | speed MPH | gust MPH | rain 1hr in | rain 24hr in | rain mn in | humidity % | barometer mb |
| 20260504185316 | 77 | 167 | 3.0 | 8.0 | 0.00 | 0.00 | 0.00 | 39 | |
| 20260504184821 | 77 | 168 | 5.0 | 10.0 | 0.00 | 0.00 | 0.00 | 43 | 983.5 |
| 20260504184533 | 77 | 165 | 6.0 | 10.0 | 0.00 | 0.00 | 0.00 | 41 | 902.2 |
| 20260504184345 | 77 | 163 | 3.0 | 9.0 | 0.00 | 0.00 | 0.00 | 40 | |
| 20260504183812 | 77 | 163 | 1.0 | 9.0 | 0.00 | 0.00 | 0.00 | 41 | |
| 20260504183339 | 76 | 164 | 4.0 | 9.0 | 0.00 | 0.00 | 0.00 | 39 | 286.4 |
| 20260504183002 | 76 | 158 | 3.0 | 10.0 | 0.00 | 0.00 | 0.00 | 41 | 902.2 |
| 20260504182832 | 77 | 129 | 4.0 | 10.0 | 0.00 | 0.00 | 0.00 | 40 | 851.5 |
| 20260504182330 | 76 | 161 | 2.0 | 7.0 | 0.00 | 0.00 | 0.00 | 41 | |
| 20260504181814 | 76 | 148 | 0.0 | 5.0 | 0.00 | 0.00 | 0.00 | 41 | 946.4 |
| 20260504181551 | 75 | 150 | 0.0 | 9.0 | 0.00 | 0.00 | 0.00 | 44 | 902.2 |
| 20260504181342 | 76 | 150 | 4.0 | 10.0 | 0.00 | 0.00 | 0.00 | 42 | |
| 20260504180822 | 76 | 159 | 6.0 | 10.0 | 0.00 | 0.00 | 0.00 | 44 | 630.4 |
| 20260504180327 | 75 | 190 | 0.0 | 2.0 | 0.00 | 0.00 | 0.00 | 44 | |
| 20260504180035 | 75 | 190 | 0.0 | 5.0 | 0.00 | 0.00 | 0.00 | 43 | 902.2 |
| 20260504175833 | 75 | 190 | 0.0 | 6.0 | 0.00 | 0.00 | 0.00 | 44 | |
| 20260504175344 | 75 | 190 | 1.0 | 7.0 | 0.00 | 0.00 | 0.00 | 45 | 735.4 |
| 20260504174816 | 75 | 194 | 0.0 | 6.0 | 0.00 | 0.00 | 0.00 | 44 | |
| 20260504174530 | 75 | 194 | 1.0 | 6.0 | 0.00 | 0.00 | 0.00 | 43 | 902.2 |
| 20260504174321 | 75 | 194 | 2.0 | 6.0 | 0.00 | 0.00 | 0.00 | 43 | 732.3 |
| 20260504173838 | 75 | 187 | 1.0 | 4.0 | 0.00 | 0.00 | 0.00 | 42 | |
| 20260504173322 | 74 | 187 | 0.0 | 6.0 | 0.00 | 0.00 | 0.00 | 44 | |
| 20260504173056 | 73 | 186 | 0.0 | 7.0 | 0.00 | 0.00 | 0.00 | 45 | 902.2 |
| 20260504172843 | 74 | 186 | 0.0 | 7.0 | 0.00 | 0.00 | 0.00 | 42 | |
| 20260504172321 | 74 | 188 | 3.0 | 7.0 | 0.00 | 0.00 | 0.00 | 43 | 330.1 |
| 20260504171830 | 74 | 126 | 0.0 | 9.0 | 0.00 | 0.00 | 0.00 | 45 | |
| 20260504171534 | 73 | 125 | 0.0 | 9.0 | 0.00 | 0.00 | 0.00 | 42 | 902.2 |
| 20260504171337 | 74 | 125 | 2.0 | 9.0 | 0.00 | 0.00 | 0.00 | 43 | 376.4 |
| 20260504170822 | 74 | 118 | 2.0 | 7.0 | 0.00 | 0.00 | 0.00 | 44 | |
| 20260504170336 | 74 | 136 | 3.0 | 6.0 | 0.00 | 0.00 | 0.00 | 42 | |
| 20260504170104 | 73 | 136 | 2.0 | 6.0 | 0.00 | 0.00 | 0.00 | 44 | 902.2 |
| 20260504160327 | 72 | 240 | 2.0 | 5.0 | 0.00 | 0.00 | 0.00 | 45 | |
| 20260504150815 | 69 | 185 | 3.0 | 6.0 | 0.00 | 0.00 | 0.00 | 45 | |
| 20260504150317 | 69 | 171 | 3.0 | 7.0 | 0.00 | 0.00 | 0.00 | 45 | 843.4 |
| 20260504141321 | 64 | 156 | 3.0 | 6.0 | 0.00 | 0.00 | 0.00 | 59 | 810.4 |
| 20260504140828 | 64 | 152 | 4.0 | 5.0 | 0.00 | 0.00 | 0.00 | 60 | |
| 20260504140351 | 63 | 119 | 1.0 | 5.0 | 0.00 | 0.00 | 0.00 | 62 | 203.5 |
| 20260504130338 | 54 | 35 | 0.0 | 0.0 | 0.00 | 0.00 | 0.00 | 76 | 571.2 |
| 20260504130104 | 53 | 125 | 0.0 | 0.0 | 0.00 | 0.00 | 0.00 | 78 | 902.2 |
| 20260504120119 | 42 | 125 | 0.0 | 0.0 | 0.00 | 0.00 | 0.00 | 95 | 902.2 |
| 20260504110311 | 38 | 124 | 0.0 | 0.0 | 0.00 | 0.00 | 0.00 | 93 | 971.8 |
| 20260504100343 | 38 | 123 | 0.0 | 0.0 | 0.00 | 0.00 | 0.00 | 93 | |
| 20260504081827 | 41 | 124 | 0.0 | 0.0 | 0.00 | 0.00 | 0.00 | 93 | 652.9 |
| 20260504081512 | 40 | 124 | 0.0 | 0.0 | 0.00 | 0.00 | 0.00 | 93 | 1016.8 |
| 20260504081315 | 41 | 124 | 0.0 | 0.0 | 0.00 | 0.00 | 0.00 | 93 | |
| 20260504080833 | 41 | 124 | 0.0 | 0.0 | 0.00 | 0.00 | 0.00 | 93 | 327.2 |
| 20260504080322 | 41 | 124 | 0.0 | 0.0 | 0.00 | 0.00 | 0.00 | 93 | 1093.9 |
| 20260504070330 | 41 | 124 | 0.0 | 0.0 | 0.00 | 0.00 | 0.00 | 92 | |
| 20260504050331 | 44 | 123 | 0.0 | 0.0 | 0.00 | 0.00 | 0.00 | 89 | |
| 20260504045859 | 45 | 123 | 0.0 | 0.0 | 0.00 | 0.00 | 0.00 | 88 | 449.5 |
| 20260504045400 | 45 | 123 | 0.0 | 0.0 | 0.00 | 0.00 | 0.00 | 88 | |
| 20260504044821 | 45 | 123 | 0.0 | 0.0 | 0.00 | 0.00 | 0.00 | 87 | |
| 20260504044513 | 45 | 124 | 0.0 | 0.0 | 0.00 | 0.00 | 0.00 | 88 | 1016.8 |
| 20260504044327 | 45 | 124 | 0.0 | 0.0 | 0.00 | 0.00 | 0.00 | 88 | 624.5 |
| 20260504043830 | 45 | 124 | 0.0 | 0.0 | 0.00 | 0.00 | 0.00 | 87 | 1051.4 |
| 20260504043338 | 45 | 124 | 0.0 | 0.0 | 0.00 | 0.00 | 0.00 | 87 | 728.1 |
| 20260504043007 | 45 | 123 | 0.0 | 0.0 | 0.00 | 0.00 | 0.00 | 87 | 1016.8 |
| 20260504042833 | 46 | 123 | 0.0 | 0.0 | 0.00 | 0.00 | 0.00 | 87 | 285.0 |
| 20260504042343 | 46 | 123 | 0.0 | 0.0 | 0.00 | 0.00 | 0.00 | 86 | 475.7 |
| 20260504041828 | 46 | 124 | 0.0 | 0.0 | 0.00 | 0.00 | 0.00 | 86 | |
| 20260504041551 | 46 | 124 | 0.0 | 0.0 | 0.00 | 0.00 | 0.00 | 86 | 1016.8 |
| 20260504041322 | 46 | 124 | 0.0 | 0.0 | 0.00 | 0.00 | 0.00 | 86 | |
| 20260504040831 | 46 | 124 | 0.0 | 0.0 | 0.00 | 0.00 | 0.00 | 86 | |
| 20260504040318 | 47 | 123 | 0.0 | 0.0 | 0.00 | 0.00 | 0.00 | 85 | |
| 20260504040043 | 46 | 124 | 0.0 | 0.0 | 0.00 | 0.00 | 0.00 | 85 | 1016.8 |
| 20260504035826 | 47 | 124 | 0.0 | 0.0 | 0.00 | 0.00 | 0.00 | 84 | 280.7 |
| 20260504035320 | 47 | 123 | 0.0 | 0.0 | 0.00 | 0.00 | 0.00 | 85 | |
| 20260504034827 | 47 | 124 | 0.0 | 0.0 | 0.00 | 0.00 | 0.00 | 84 | |
| 20260504034535 | 47 | 124 | 0.0 | 0.0 | 0.00 | 0.00 | 0.00 | 84 | 1016.8 |
| 20260504034331 | 47 | 124 | 0.0 | 0.0 | 0.00 | 0.00 | 0.00 | 84 | |
| 20260504033846 | 47 | 124 | 0.0 | 0.0 | 0.00 | 0.00 | 0.00 | 83 | |
| 20260504033355 | 48 | 123 | 0.0 | 0.0 | 0.00 | 0.00 | 0.00 | 83 | 643.9 |
| 20260504033113 | 47 | 124 | 0.0 | 0.0 | 0.00 | 0.00 | 0.00 | 83 | 1016.8 |
| 20260504032838 | 48 | 124 | 0.0 | 0.0 | 0.00 | 0.00 | 0.00 | 83 | |
| 20260504032314 | 48 | 124 | 0.0 | 0.0 | 0.00 | 0.00 | 0.00 | 82 | |
| 20260504031827 | 48 | 123 | 0.0 | 0.0 | 0.00 | 0.00 | 0.00 | 82 | |
| 20260504031604 | 48 | 123 | 0.0 | 0.0 | 0.00 | 0.00 | 0.00 | 82 | 1016.8 |
| 20260504031327 | 48 | 124 | 0.0 | 0.0 | 0.00 | 0.00 | 0.00 | 82 | 984.9 |
| 20260504030815 | 49 | 123 | 0.0 | 0.0 | 0.00 | 0.00 | 0.00 | 82 | |
| 20260504030325 | 49 | 124 | 0.0 | 0.0 | 0.00 | 0.00 | 0.00 | 81 | |
| 20260504030050 | 49 | 123 | 0.0 | 0.0 | 0.00 | 0.00 | 0.00 | 80 | 1016.8 |
| 20260504025846 | 49 | 124 | 0.0 | 0.0 | 0.00 | 0.00 | 0.00 | 79 | |
| 20260504025331 | 49 | 123 | 0.0 | 0.0 | 0.00 | 0.00 | 0.00 | 79 | 112.5 |
| 20260504024825 | 49 | 123 | 0.0 | 0.0 | 0.00 | 0.00 | 0.00 | 78 | 635.2 |
| 20260504024535 | 49 | 123 | 0.0 | 0.0 | 0.00 | 0.00 | 0.00 | 79 | 1016.8 |
| 20260504024329 | 50 | 124 | 0.0 | 0.0 | 0.00 | 0.00 | 0.00 | 78 | 735.0 |
| 20260504023812 | 50 | 124 | 0.0 | 0.0 | 0.00 | 0.00 | 0.00 | 78 | |
| 20260504023321 | 50 | 124 | 0.0 | 0.0 | 0.00 | 0.00 | 0.00 | 78 | 349.4 |
| 20260504023016 | 50 | 124 | 0.0 | 0.0 | 0.00 | 0.00 | 0.00 | 77 | 1016.8 |
| 20260504022849 | 50 | 123 | 0.0 | 0.0 | 0.00 | 0.00 | 0.00 | 77 | 190.7 |
| 20260504022352 | 51 | 124 | 0.0 | 0.0 | 0.00 | 0.00 | 0.00 | 76 | |
| 20260504021818 | 51 | 124 | 0.0 | 0.0 | 0.00 | 0.00 | 0.00 | 76 | |
| 20260504021531 | 51 | 123 | 0.0 | 0.0 | 0.00 | 0.00 | 0.00 | 75 | 1016.8 |
| 20260504021321 | 51 | 123 | 0.0 | 0.0 | 0.00 | 0.00 | 0.00 | 75 | |
| 20260504020827 | 52 | 123 | 0.0 | 0.0 | 0.00 | 0.00 | 0.00 | 75 | 242.0 |
| 20260504020336 | 52 | 124 | 0.0 | 0.0 | 0.00 | 0.00 | 0.00 | 74 | 270.5 |
| 20260504020004 | 52 | 124 | 0.0 | 0.0 | 0.00 | 0.00 | 0.00 | 73 | 1016.8 |
| 20260504015815 | 53 | 124 | 0.0 | 0.0 | 0.00 | 0.00 | 0.00 | 72 | 544.0 |
| 20260504015318 | 53 | 124 | 0.0 | 0.0 | 0.00 | 0.00 | 0.00 | 73 | |
| 20260504014819 | 54 | 123 | 0.0 | 0.0 | 0.00 | 0.00 | 0.00 | 70 | 707.1 |
| 20260504014516 | 53 | 123 | 0.0 | 0.0 | 0.00 | 0.00 | 0.00 | 69 | 1016.8 |
| 20260504014328 | 54 | 123 | 0.0 | 0.0 | 0.00 | 0.00 | 0.00 | 69 | 1030.5 |
| 20260504013829 | 54 | 123 | 0.0 | 0.0 | 0.00 | 0.00 | 0.00 | 68 | 368.1 |
| 20260504013346 | 55 | 123 | 0.0 | 0.0 | 0.00 | 0.00 | 0.00 | 67 | 97.8 |
| 20260504013107 | 55 | 124 | 0.0 | 0.0 | 0.00 | 0.00 | 0.00 | 66 | 1016.8 |
| 20260504012821 | 56 | 124 | 0.0 | 0.0 | 0.00 | 0.00 | 0.00 | 64 | |
| 20260504012316 | 56 | 124 | 0.0 | 0.0 | 0.00 | 0.00 | 0.00 | 63 | 221.3 |
| 20260504011843 | 57 | 123 | 0.0 | 0.0 | 0.00 | 0.00 | 0.00 | 62 | 232.8 |
| 20260504011600 | 56 | 124 | 0.0 | 0.0 | 0.00 | 0.00 | 0.00 | 62 | 1016.8 |
| 20260504011316 | 57 | 123 | 0.0 | 0.0 | 0.00 | 0.00 | 0.00 | 61 | 531.8 |
| 20260504010820 | 58 | 124 | 0.0 | 0.0 | 0.00 | 0.00 | 0.00 | 57 | |
| 20260504010333 | 58 | 123 | 0.0 | 0.0 | 0.00 | 0.00 | 0.00 | 57 | 769.9 |
| 20260504010049 | 58 | 123 | 0.0 | 0.0 | 0.00 | 0.00 | 0.00 | 56 | 1016.8 |
| 20260504005837 | 59 | 124 | 0.0 | 0.0 | 0.00 | 0.00 | 0.00 | 55 | 124.6 |
| 20260504005403 | 59 | 124 | 0.0 | 0.0 | 0.00 | 0.00 | 0.00 | 54 | 338.0 |
| 20260504004817 | 59 | 124 | 0.0 | 0.0 | 0.00 | 0.00 | 0.00 | 53 | 118.6 |
| 20260504004538 | 59 | 124 | 0.0 | 0.0 | 0.00 | 0.00 | 0.00 | 52 | 1016.8 |
| 20260504004326 | 60 | 123 | 0.0 | 0.0 | 0.00 | 0.00 | 0.00 | 52 | 185.3 |
| 20260504003836 | 61 | 124 | 0.0 | 0.0 | 0.00 | 0.00 | 0.00 | 50 | |
| 20260504003320 | 61 | 124 | 0.0 | 0.0 | 0.00 | 0.00 | 0.00 | 49 | |
| 20260504003025 | 61 | 124 | 0.0 | 0.0 | 0.00 | 0.00 | 0.00 | 48 | 1066.0 |
| 20260504002824 | 62 | 124 | 0.0 | 0.0 | 0.00 | 0.00 | 0.00 | 48 | |
| 20260504002325 | 62 | 123 | 0.0 | 0.0 | 0.00 | 0.00 | 0.00 | 46 | 23.1 |
| 20260504001823 | 63 | 124 | 0.0 | 0.0 | 0.00 | 0.00 | 0.00 | 45 | 1026.0 |
| 20260504001513 | 63 | 123 | 0.0 | 0.0 | 0.00 | 0.00 | 0.00 | 44 | 1066.0 |
| 20260504001329 | 64 | 123 | 0.0 | 0.0 | 0.00 | 0.00 | 0.00 | 44 | 948.4 |
| 20260504000837 | 64 | 123 | 0.0 | 0.0 | 0.00 | 0.00 | 0.00 | 43 | |
| 20260504000346 | 65 | 122 | 0.0 | 0.0 | 0.00 | 0.00 | 0.00 | 43 | 825.6 |
| 20260504000106 | 64 | 123 | 0.0 | 0.0 | 0.00 | 0.00 | 0.00 | 42 | 1066.0 |
| 20260503235819 | 65 | 123 | 0.0 | 0.0 | 0.00 | 0.00 | 0.00 | 42 | |
| 20260503235325 | 65 | 122 | 0.0 | 3.0 | 0.00 | 0.00 | 0.00 | 41 | |
| 20260503234841 | 66 | 122 | 0.0 | 4.0 | 0.00 | 0.00 | 0.00 | 40 | |
| 20260503234550 | 65 | 122 | 0.0 | 4.0 | 0.00 | 0.00 | 0.00 | 39 | 1066.0 |
| 20260503234345 | 66 | 123 | 0.0 | 2.0 | 0.00 | 0.00 | 0.00 | 39 | 210.1 |
| 20260503233820 | 67 | 123 | 0.0 | 2.0 | 0.00 | 0.00 | 0.00 | 39 | |
| 20260503233323 | 67 | 124 | 0.0 | 5.0 | 0.00 | 0.00 | 0.00 | 38 | 190.7 |
| 20260503233024 | 67 | 124 | 0.0 | 5.0 | 0.00 | 0.00 | 0.00 | 37 | 1066.0 |
| 20260503232833 | 67 | 123 | 0.0 | 5.0 | 0.00 | 0.00 | 0.00 | 36 | 150.6 |
| 20260503232344 | 68 | 144 | 1.0 | 5.0 | 0.00 | 0.00 | 0.00 | 36 | -108.7 |
| 20260503231815 | 68 | 145 | 2.0 | 5.0 | 0.00 | 0.00 | 0.00 | 35 | |
| 20260503231519 | 68 | 144 | 1.0 | 6.0 | 0.00 | 0.00 | 0.00 | 35 | 1066.0 |
| 20260503231324 | 68 | 144 | 0.0 | 6.0 | 0.00 | 0.00 | 0.00 | 36 | 1094.3 |
| 20260503230830 | 68 | 146 | 2.0 | 6.0 | 0.00 | 0.00 | 0.00 | 36 | 830.1 |
| 20260503230339 | 69 | 145 | 1.0 | 6.0 | 0.00 | 0.00 | 0.00 | 35 | |
| 20260503230115 | 68 | 145 | 2.0 | 7.0 | 0.00 | 0.00 | 0.00 | 35 | 1066.0 |
| 20260503225832 | 69 | 145 | 1.0 | 7.0 | 0.00 | 0.00 | 0.00 | 35 | 502.9 |
| 20260503225316 | 69 | 146 | 1.0 | 7.0 | 0.00 | 0.00 | 0.00 | 35 | |
| 20260503224820 | 69 | 147 | 1.0 | 5.0 | 0.00 | 0.00 | 0.00 | 34 | |
| 20260503224554 | 69 | 148 | 0.0 | 5.0 | 0.00 | 0.00 | 0.00 | 36 | 1066.0 |
| 20260503224315 | 69 | 148 | 1.0 | 7.0 | 0.00 | 0.00 | 0.00 | 35 | 634.9 |
| 20260503223825 | 69 | 147 | 1.0 | 7.0 | 0.00 | 0.00 | 0.00 | 35 | |
| 20260503223334 | 70 | 153 | 2.0 | 7.0 | 0.00 | 0.00 | 0.00 | 36 | |
| 20260503223103 | 69 | 153 | 0.0 | 7.0 | 0.00 | 0.00 | 0.00 | 36 | 1066.0 |
| 20260503222820 | 69 | 153 | 2.0 | 7.0 | 0.00 | 0.00 | 0.00 | 36 | 420.8 |
| 20260503222324 | 70 | 169 | 1.0 | 5.0 | 0.00 | 0.00 | 0.00 | 36 | 522.1 |
| 20260503221830 | 70 | 171 | 1.0 | 5.0 | 0.00 | 0.00 | 0.00 | 36 | |
| 20260503221558 | 69 | 172 | 0.0 | 7.0 | 0.00 | 0.00 | 0.00 | 38 | 1066.0 |
| 20260503221355 | 70 | 190 | 0.0 | 7.0 | 0.00 | 0.00 | 0.00 | 37 | 902.1 |
| 20260503220814 | 70 | 188 | 4.0 | 7.0 | 0.00 | 0.00 | 0.00 | 36 | |
| 20260503220322 | 70 | 155 | 0.0 | 3.0 | 0.00 | 0.00 | 0.00 | 38 | 573.9 |
| 20260503220020 | 70 | 155 | 0.0 | 6.0 | 0.00 | 0.00 | 0.00 | 39 | 1066.0 |
| 20260503215823 | 70 | 155 | 0.0 | 6.0 | 0.00 | 0.00 | 0.00 | 39 | 667.4 |
| 20260503215326 | 70 | 155 | 2.0 | 7.0 | 0.00 | 0.00 | 0.00 | 37 | |
| 20260503214825 | 69 | 215 | 0.0 | 7.0 | 0.00 | 0.00 | 0.00 | 41 | 186.8 |
| 20260503214511 | 69 | 218 | 1.0 | 10.0 | 0.00 | 0.00 | 0.00 | 40 | 1066.0 |
| 20260503214330 | 69 | 192 | 2.0 | 10.0 | 0.00 | 0.00 | 0.00 | 38 | 65.3 |
| 20260503213816 | 69 | 190 | 3.0 | 10.0 | 0.00 | 0.00 | 0.00 | 39 | -106.7 |
| 20260503213341 | 69 | 124 | 4.0 | 8.0 | 0.00 | 0.00 | 0.00 | 37 | 331.0 |
| 20260503213104 | 69 | 123 | 1.0 | 5.0 | 0.00 | 0.00 | 0.00 | 38 | 1066.0 |
| 20260503212831 | 70 | 155 | 0.0 | 5.0 | 0.00 | 0.00 | 0.00 | 39 | 422.6 |
| 20260503212328 | 69 | 165 | 0.0 | 8.0 | 0.00 | 0.00 | 0.00 | 40 | |
| 20260503211833 | 69 | 187 | 4.0 | 8.0 | 0.00 | 0.00 | 0.00 | 38 | |
| 20260503211544 | 69 | 146 | 0.0 | 4.0 | 0.00 | 0.00 | 0.00 | 37 | 1066.0 |
| 20260503211341 | 69 | 146 | 0.0 | 7.0 | 0.00 | 0.00 | 0.00 | 39 | |
| 20260503210845 | 69 | 157 | 1.0 | 10.0 | 0.00 | 0.00 | 0.00 | 38 | 1070.4 |
| 20260503210339 | 69 | 188 | 6.0 | 10.0 | 0.00 | 0.00 | 0.00 | 39 | |
| 20260503210045 | 69 | 157 | 1.0 | 4.0 | 0.00 | 0.00 | 0.00 | 38 | 1066.0 |
| 20260503205828 | 69 | 157 | 0.0 | 5.0 | 0.00 | 0.00 | 0.00 | 38 | |
| 20260503205326 | 69 | 159 | 1.0 | 9.0 | 0.00 | 0.00 | 0.00 | 37 | |
| 20260503204832 | 69 | 169 | 2.0 | 9.0 | 0.00 | 0.00 | 0.00 | 35 | |
| 20260503204537 | 68 | 141 | 2.0 | 8.0 | 0.00 | 0.00 | 0.00 | 36 | 1066.0 |
| 20260503204336 | 69 | 140 | 3.0 | 8.0 | 0.00 | 0.00 | 0.00 | 36 | |
| 20260503203838 | 69 | 165 | 1.0 | 9.0 | 0.00 | 0.00 | 0.00 | 37 | 691.5 |
| 20260503203315 | 68 | 167 | 4.0 | 8.0 | 0.00 | 0.00 | 0.00 | 35 | 555.4 |
| 20260503203026 | 68 | 161 | 2.0 | 7.0 | 0.00 | 0.00 | 0.00 | 36 | 1066.0 |
| 20260503202820 | 68 | 163 | 2.0 | 7.0 | 0.00 | 0.00 | 0.00 | 34 | 124.2 |
| 20260503202332 | 68 | 149 | 0.0 | 9.0 | 0.00 | 0.00 | 0.00 | 36 | 899.3 |
| 20260503201840 | 68 | 149 | 1.0 | 9.0 | 0.00 | 0.00 | 0.00 | 35 | 920.2 |
| 20260503201515 | 68 | 158 | 5.0 | 9.0 | 0.00 | 0.00 | 0.00 | 34 | 1066.0 |
| 20260503201327 | 69 | 155 | 3.0 | 9.0 | 0.00 | 0.00 | 0.00 | 34 | 353.7 |
| 20260503200837 | 68 | 80 | 2.0 | 8.0 | 0.00 | 0.00 | 0.00 | 34 | 879.2 |
| 20260503200344 | 69 | 140 | 0.0 | 7.0 | 0.00 | 0.00 | 0.00 | 33 | |
| 20260503200012 | 68 | 133 | 3.0 | 8.0 | 0.00 | 0.00 | 0.00 | 32 | 1066.0 |
| 20260503195823 | 68 | 200 | 4.0 | 8.0 | 0.00 | 0.00 | 0.00 | 36 | 370.8 |
| 20260503195347 | 68 | 169 | 2.0 | 7.0 | 0.00 | 0.00 | 0.00 | 36 | |
| 20260503194817 | 68 | 128 | 1.0 | 10.0 | 0.00 | 0.00 | 0.00 | 36 | 2.5 |
| 20260503194554 | 67 | 123 | 0.0 | 10.0 | 0.00 | 0.00 | 0.00 | 34 | 1066.0 |
| 20260503194314 | 68 | 123 | 4.0 | 10.0 | 0.00 | 0.00 | 0.00 | 35 | |
| 20260503193821 | 67 | 121 | 0.0 | 8.0 | 0.00 | 0.00 | 0.00 | 38 | 703.5 |
| 20260503193326 | 67 | 117 | 1.0 | 9.0 | 0.00 | 0.00 | 0.00 | 35 | |
| 20260503193051 | 67 | 80 | 2.0 | 9.0 | 0.00 | 0.00 | 0.00 | 36 | 1066.0 |
| 20260503192836 | 68 | 69 | 2.0 | 9.0 | 0.00 | 0.00 | 0.00 | 38 | |
| 20260503192339 | 67 | 96 | 0.0 | 9.0 | 0.00 | 0.00 | 0.00 | 36 | 1108.3 |
| 20260503191823 | 67 | 142 | 0.0 | 9.0 | 0.00 | 0.00 | 0.00 | 37 | |
| 20260503191526 | 67 | 111 | 2.0 | 7.0 | 0.00 | 0.00 | 0.00 | 33 | 1066.0 |
| 20260503191329 | 67 | 161 | 1.0 | 7.0 | 0.00 | 0.00 | 0.00 | 36 | |
| 20260503190830 | 67 | 178 | 1.0 | 7.0 | 0.00 | 0.00 | 0.00 | 35 | |
| 20260503190334 | 67 | 186 | 2.0 | 7.0 | 0.00 | 0.00 | 0.00 | 36 | 303.1 |
| 20260503190006 | 66 | 198 | 0.0 | 9.0 | 0.00 | 0.00 | 0.00 | 33 | 1066.0 |
| 20260503185826 | 67 | 198 | 0.0 | 9.0 | 0.00 | 0.00 | 0.00 | 36 | 239.2 |